Total_Precipitation_Accumulation
0.15 0.13 0.12 0.13 0.14 0.13 0.11 0.14 0.13 0.12 0.06 0.06 0.08 0.10 0.14 0.15 0.12 0.11 0.01 0.04 0.09 0.08 0.02 0.03 0.03 0.01 0.01 0.00 0.00 0.01 0.02 0.03 0.03 0.04 0.13 0.20 0.15 0.07 0.01 0.01 0.06 0.16 0.24 0.23 0.27 0.38 0.20 0.06 0.08 0.13 0.10 0.04 0.02 0.02
0.11 0.12 0.14 0.13 0.13 0.19 0.14 0.11 0.16 0.12 0.14 0.05 0.04 0.10 0.18 0.22 0.14 0.13 0.04 0.03 0.07 0.11 0.06 0.05 0.02 0.01 0.01 0.00 0.00 0.00 0.02 0.04 0.05 0.04 0.08 0.05 0.03 0.02 0.03 0.01 0.03 0.09 0.15 0.20 0.16 0.20 0.22 0.16 0.06 0.02 0.01 0.00 0.00 0.00
0.08 0.08 0.09 0.08 0.08 0.12 0.19 0.13 0.11 0.15 0.09 0.07 0.04 0.07 0.16 0.22 0.24 0.15 0.04 0.08 0.12 0.08 0.02 0.00 0.00 0.00 0.00 0.00 0.00 0.00 0.00 0.01 0.03 0.03 0.04 0.03 0.01 0.04 0.02 0.02 0.03 0.08 0.12 0.28 0.19 0.07 0.16 0.17 0.09 0.03 0.00 0.00 0.00 0.00
0.10 0.10 0.09 0.09 0.06 0.08 0.16 0.16 0.09 0.17 0.05 0.05 0.06 0.06 0.13 0.14 0.26 0.26 0.11 0.06 0.09 0.06 0.03 0.00 0.00 0.00 0.00 0.00 0.00 0.00 0.00 0.00 0.00 0.02 0.04 0.02 0.01 0.01 0.01 0.01 0.01 0.03 0.06 0.07 0.10 0.07 0.14 0.28 0.11 0.03 0.02 0.03 0.01 0.00
0.07 0.05 0.05 0.09 0.08 0.07 0.14 0.16 0.07 0.18 0.10 0.07 0.09 0.09 0.11 0.13 0.21 0.34 0.21 0.12 0.11 0.15 0.11 0.02 0.00 0.00 0.00 0.00 0.00 0.00 0.00 0.00 0.01 0.01 0.01 0.01 0.00 0.00 0.00 0.00 0.00 0.00 0.02 0.20 0.28 0.20 0.22 0.18 0.18 0.32 0.15 0.06 0.01 0.00
0.04 0.07 0.07 0.08 0.08 0.10 0.15 0.15 0.11 0.16 0.14 0.13 0.11 0.13 0.12 0.13 0.19 0.28 0.59 0.21 0.08 0.13 0.10 0.01 0.00 0.00 0.00 0.00 0.00 0.00 0.00 0.01 0.03 0.04 0.03 0.01 0.00 0.01 0.00 0.00 0.00 0.00 0.00 0.00 0.00 0.00 0.06 0.18 0.07 0.05 0.07 0.03 0.00 0.00
0.05 0.06 0.08 0.11 0.15 0.20 0.17 0.11 0.11 0.16 0.15 0.15 0.12 0.14 0.12 0.11 0.11 0.13 0.13 0.10 0.02 0.09 0.12 0.02 0.00 0.00 0.00 0.00 0.00 0.00 0.00 0.02 0.04 0.05 0.03 0.02 0.01 0.07 0.02 0.00 0.00 0.00 0.00 0.00 0.00 0.00 0.00 0.01 0.01 0.00 0.00 0.00 0.00 0.00
0.06 0.10 0.14 0.17 0.17 0.10 0.09 0.10 0.12 0.21 0.10 0.11 0.13 0.20 0.24 0.17 0.16 0.18 0.02 0.02 0.06 0.08 0.05 0.03 0.00 0.00 0.00 0.03 0.04 0.02 0.05 0.07 0.05 0.03 0.02 0.03 0.02 0.05 0.04 0.00 0.00 0.00 0.00 0.00 0.00 0.00 0.00 0.00 0.00 0.00 0.00 0.00 0.00 0.00
0.03 0.04 0.05 0.04 0.04 0.05 0.05 0.10 0.28 0.18 0.08 0.10 0.13 0.22 0.34 0.31 0.32 0.16 0.04 0.07 0.11 0.08 0.04 0.01 0.00 0.01 0.02 0.07 0.10 0.12 0.13 0.10 0.04 0.03 0.01 0.03 0.04 0.03 0.00 0.00 0.00 0.00 0.00 0.00 0.00 0.00 0.00 0.00 0.00 0.00 0.00 0.00 0.00 0.00
0.03 0.03 0.03 0.03 0.04 0.06 0.12 0.28 0.25 0.07 0.03 0.02 0.04 0.12 0.26 0.23 0.14 0.05 0.06 0.14 0.14 0.05 0.02 0.00 0.01 0.02 0.05 0.11 0.15 0.09 0.10 0.08 0.07 0.02 0.01 0.02 0.00 0.00 0.00 0.00 0.00 0.00 0.00 0.00 0.00 0.00 0.00 0.00 0.00 0.00 0.00 0.00 0.00 0.00
0.03 0.04 0.05 0.07 0.09 0.15 0.23 0.23 0.06 0.02 0.02 0.02 0.03 0.08 0.05 0.02 0.05 0.06 0.03 0.01 0.02 0.01 0.00 0.00 0.00 0.00 0.01 0.04 0.06 0.11 0.14 0.18 0.20 0.04 0.02 0.02 0.00 0.00 0.00 0.00 0.00 0.00 0.00 0.00 0.01 0.00 0.00 0.00 0.00 0.00 0.00 0.00 0.00 0.00
0.04 0.06 0.08 0.11 0.13 0.15 0.12 0.07 0.03 0.03 0.01 0.01 0.01 0.00 0.02 0.05 0.07 0.02 0.02 0.01 0.01 0.01 0.01 0.02 0.02 0.02 0.02 0.03 0.02 0.01 0.03 0.05 0.11 0.25 0.24 0.08 0.04 0.12 0.16 0.08 0.00 0.00 0.00 0.00 0.01 0.02 0.00 0.00 0.00 0.00 0.00 0.00 0.00 0.00
0.02 0.03 0.04 0.05 0.04 0.03 0.02 0.01 0.01 0.00 0.00 0.01 0.00 0.01 0.01 0.00 0.01 0.00 0.00 0.00 0.00 0.00 0.02 0.04 0.11 0.14 0.09 0.06 0.08 0.07 0.11 0.06 0.06 0.21 0.33 0.27 0.24 0.05 0.01 0.03 0.01 0.00 0.00 0.01 0.01 0.10 0.04 0.00 0.00 0.00 0.00 0.00 0.00 0.00
0.01 0.01 0.01 0.00 0.00 0.00 0.00 0.00 0.00 0.00 0.00 0.00 0.00 0.00 0.00 0.00 0.00 0.00 0.01 0.02 0.02 0.03 0.04 0.08 0.17 0.25 0.31 0.38 0.19 0.26 0.17 0.09 0.15 0.15 0.42 0.40 0.05 0.06 0.05 0.06 0.01 0.00 0.00 0.00 0.01 0.04 0.07 0.02 0.00 0.00 0.00 0.00 0.00 0.00
0.00 0.00 0.00 0.00 0.00 0.00 0.00 0.00 0.00 0.00 0.00 0.00 0.00 0.01 0.01 0.00 0.03 0.04 0.04 0.04 0.02 0.04 0.07 0.17 0.14 0.20 0.40 0.39 0.13 0.13 0.10 0.15 0.22 0.15 0.61 0.09 0.02 0.06 0.10 0.04 0.02 0.01 0.01 0.01 0.01 0.04 0.01 0.00 0.00 0.00 0.00 0.00 0.00 0.00
0.00 0.01 0.01 0.00 0.00 0.00 0.00 0.00 0.00 0.00 0.00 0.01 0.02 0.01 0.02 0.04 0.08 0.12 0.05 0.04 0.12 0.16 0.17 0.21 0.27 0.42 0.31 0.14 0.16 0.08 0.08 0.15 0.25 0.06 0.04 0.00 0.00 0.00 0.00 0.01 0.01 0.01 0.00 0.00 0.00 0.00 0.01 0.00 0.00 0.00 0.00 0.00 0.00 0.00
0.00 0.01 0.00 0.00 0.00 0.00 0.00 0.00 0.01 0.01 0.01 0.00 0.01 0.03 0.04 0.02 0.02 0.03 0.03 0.03 0.07 0.17 0.31 0.30 0.57 0.37 0.31 0.23 0.27 0.05 0.20 0.48 0.11 0.00 0.00 0.00 0.00 0.00 0.00 0.00 0.00 0.00 0.00 0.00 0.00 0.00 0.00 0.00 0.00 0.00 0.00 0.00 0.00 0.00
0.01 0.04 0.00 0.00 0.00 0.01 0.00 0.00 0.01 0.01 0.01 0.00 0.01 0.03 0.03 0.01 0.01 0.02 0.04 0.05 0.03 0.05 0.10 0.15 0.08 0.04 0.07 0.09 0.22 0.31 0.33 0.24 0.07 0.00 0.00 0.00 0.00 0.00 0.00 0.00 0.00 0.00 0.00 0.00 0.00 0.00 0.00 0.00 0.00 0.00 0.00 0.00 0.00 0.00
0.01 0.03 0.00 0.00 0.00 0.02 0.02 0.01 0.01 0.01 0.00 0.00 0.01 0.01 0.00 0.00 0.00 0.00 0.01 0.01 0.01 0.01 0.01 0.01 0.02 0.05 0.11 0.20 0.28 0.13 0.10 0.06 0.01 0.00 0.00 0.00 0.00 0.00 0.00 0.00 0.00 0.00 0.00 0.00 0.00 0.00 0.00 0.00 0.00 0.00 0.00 0.00 0.00 0.00
0.00 0.00 0.00 0.01 0.02 0.05 0.02 0.04 0.03 0.02 0.00 0.02 0.01 0.00 0.00 0.00 0.00 0.01 0.00 0.00 0.01 0.03 0.03 0.03 0.03 0.04 0.04 0.05 0.01 0.00 0.00 0.00 0.00 0.00 0.00 0.00 0.00 0.01 0.00 0.00 0.00 0.00 0.01 0.01 0.01 0.00 0.00 0.00 0.00 0.00 0.00 0.00 0.00 0.01
0.00 0.00 0.00 0.02 0.03 0.03 0.02 0.03 0.05 0.04 0.02 0.01 0.00 0.01 0.01 0.02 0.00 0.00 0.01 0.01 0.02 0.02 0.05 0.08 0.12 0.12 0.07 0.01 0.00 0.00 0.00 0.00 0.00 0.01 0.01 0.01 0.01 0.05 0.06 0.05 0.03 0.01 0.02 0.01 0.00 0.00 0.00 0.00 0.00 0.00 0.00 0.00 0.00 0.00
0.05 0.06 0.09 0.06 0.08 0.07 0.03 0.00 0.01 0.02 0.01 0.00 0.00 0.01 0.02 0.02 0.03 0.05 0.06 0.04 0.05 0.08 0.12 0.08 0.02 0.00 0.00 0.00 0.00 0.00 0.00 0.00 0.00 0.00 0.00 0.01 0.01 0.02 0.03 0.04 0.06 0.05 0.05 0.02 0.01 0.00 0.00 0.00 0.00 0.00 0.00 0.00 0.00 0.00
0.04 0.08 0.12 0.12 0.13 0.07 0.02 0.01 0.05 0.02 0.01 0.02 0.05 0.07 0.06 0.07 0.05 0.04 0.05 0.10 0.14 0.16 0.10 0.02 0.01 0.01 0.01 0.00 0.00 0.00 0.00 0.00 0.00 0.01 0.01 0.01 0.01 0.02 0.05 0.06 0.07 0.07 0.09 0.09 0.06 0.05 0.04 0.02 0.01 0.01 0.01 0.02 0.02 0.02
0.04 0.12 0.19 0.25 0.38 0.19 0.08 0.02 0.02 0.04 0.07 0.09 0.12 0.09 0.04 0.02 0.01 0.01 0.03 0.18 0.23 0.14 0.02 0.00 0.00 0.00 0.00 0.00 0.00 0.00 0.00 0.00 0.00 0.01 0.02 0.03 0.03 0.04 0.08 0.09 0.09 0.07 0.08 0.07 0.05 0.04 0.03 0.02 0.03 0.04 0.06 0.06 0.05 0.04
0.04 0.06 0.06 0.08 0.10 0.10 0.11 0.09 0.08 0.16 0.23 0.13 0.05 0.02 0.01 0.00 0.00 0.01 0.05 0.28 0.20 0.08 0.02 0.00 0.00 0.00 0.00 0.00 0.00 0.00 0.00 0.01 0.01 0.01 0.00 0.02 0.03 0.02 0.02 0.05 0.07 0.05 0.04 0.04 0.03 0.04 0.05 0.06 0.07 0.08 0.08 0.07 0.07 0.06
0.14 0.18 0.11 0.12 0.05 0.05 0.10 0.04 0.04 0.05 0.01 0.00 0.01 0.01 0.01 0.01 0.02 0.12 0.27 0.31 0.09 0.02 0.02 0.02 0.02 0.01 0.00 0.01 0.01 0.01 0.01 0.01 0.01 0.01 0.03 0.04 0.04 0.05 0.05 0.05 0.10 0.06 0.01 0.01 0.03 0.04 0.06 0.07 0.08 0.09 0.09 0.08 0.08 0.07
0.10 0.04 0.01 0.01 0.01 0.03 0.05 0.02 0.01 0.02 0.06 0.11 0.11 0.05 0.06 0.10 0.26 0.38 0.18 0.05 0.03 0.02 0.01 0.02 0.02 0.03 0.02 0.01 0.02 0.01 0.01 0.01 0.02 0.03 0.05 0.06 0.08 0.11 0.07 0.06 0.06 0.06 0.03 0.02 0.03 0.03 0.03 0.03 0.04 0.05 0.05 0.05 0.06 0.07
0.11 0.02 0.00 0.01 0.04 0.04 0.06 0.10 0.20 0.30 0.30 0.17 0.06 0.12 0.25 0.37 0.39 0.23 0.12 0.07 0.03 0.01 0.00 0.00 0.00 0.01 0.02 0.02 0.03 0.03 0.02 0.01 0.00 0.01 0.04 0.08 0.12 0.10 0.07 0.06 0.05 0.03 0.02 0.01 0.00 0.00 0.01 0.01 0.01 0.01 0.02 0.02 0.03 0.04
0.01 0.00 0.00 0.02 0.03 0.03 0.19 0.22 0.18 0.23 0.14 0.06 0.09 0.11 0.20 0.21 0.18 0.12 0.07 0.03 0.01 0.01 0.01 0.01 0.00 0.00 0.01 0.01 0.01 0.03 0.05 0.01 0.02 0.02 0.04 0.13 0.16 0.10 0.06 0.05 0.03 0.01 0.01 0.01 0.00 0.00 0.00 0.00 0.01 0.01 0.01 0.01 0.03 0.04
0.00 0.00 0.00 0.01 0.04 0.05 0.12 0.07 0.08 0.06 0.02 0.03 0.06 0.07 0.27 0.29 0.17 0.06 0.02 0.01 0.02 0.03 0.04 0.03 0.03 0.01 0.01 0.01 0.01 0.03 0.07 0.02 0.05 0.08 0.11 0.16 0.15 0.10 0.05 0.04 0.02 0.01 0.01 0.01 0.01 0.01 0.00 0.01 0.01 0.01 0.01 0.01 0.02 0.02
0.00 0.01 0.01 0.00 0.00 0.00 0.00 0.01 0.01 0.01 0.00 0.01 0.03 0.07 0.27 0.36 0.20 0.06 0.02 0.01 0.01 0.01 0.02 0.02 0.02 0.01 0.02 0.04 0.04 0.04 0.04 0.03 0.03 0.04 0.07 0.10 0.07 0.04 0.03 0.02 0.02 0.03 0.03 0.01 0.01 0.01 0.01 0.02 0.02 0.02 0.02 0.01 0.02 0.02
0.00 0.01 0.01 0.00 0.00 0.00 0.03 0.03 0.00 0.00 0.00 0.00 0.01 0.03 0.25 0.47 0.42 0.14 0.07 0.02 0.01 0.02 0.03 0.04 0.05 0.05 0.04 0.07 0.04 0.07 0.11 0.08 0.04 0.03 0.03 0.03 0.02 0.01 0.01 0.02 0.05 0.06 0.03 0.02 0.01 0.01 0.02 0.03 0.02 0.02 0.01 0.02 0.01 0.01
0.00 0.00 0.00 0.01 0.01 0.00 0.00 0.00 0.00 0.00 0.00 0.04 0.08 0.17 0.27 0.34 0.30 0.20 0.08 0.05 0.05 0.05 0.05 0.05 0.04 0.04 0.04 0.06 0.03 0.01 0.02 0.03 0.03 0.02 0.01 0.01 0.02 0.02 0.03 0.05 0.07 0.05 0.03 0.04 0.03 0.02 0.02 0.02 0.03 0.02 0.01 0.01 0.01 0.01